Погода в Кротове

Россия / Смоленская область     55°17′26″N   32°39′15″E
темп.,
°C
ветер,
м/с
пор.,
м/с
влажн.,
%
обл.,
%
осадки,
мм/ч
давл.,
гПа
погр.,
м
16 мая, вс
вс1600:00+11ююз31098100 0.0 1008287
03:00+10ю2899100 0.0 1009240
06:00+11ююз289989 0.9 1010296
09:00+14ююз379185 2.4 1011554
12:00+18юз346770 0.1 10111208
15:00+20юз335993 0.6 10111551
18:00+20ююз23608 0.1 10111300
21:00+14ю228756 0.1 101212
17 мая, пн
пн1700:00+12вюв1193100 0.0 101212
03:00+11вюв25967 0.0 101393
06:00+12вюв2892100 0.0 1012195
09:00+17вюв3870100 0.0 1011415
12:00+22в475460 0.0 1009901
15:00+25вюв6115390 0.0 10071689
18:00+24вюв5116060 0.2 10051527
21:00+19вюв514732 0.2 1005713
18 мая, вт
вт1800:00+18юв5147962 0.0 1004677
03:00+15вюв4139224 0.8 1004494
06:00+15юв41396100 0.0 1004524
09:00+19ююв5118491 0.0 1005824
12:00+23ююв51063100 0.2 10051660
15:00+17ююз159492 5.7 1005250
18:00+19ююв3787100 1.3 1004657
21:00+16ююв51489100 6.4 1005966
19 мая, ср
ср1900:00+13юв2898100 0.1 1004241
03:00+12юв2798100 0.1 1005197
06:00+13юв259697 0.0 1005176
09:00+17юв2477100 0.0 1005505
12:00+15вюв2695100 0.5 1005287
15:00+21юв476496 1.1 10041539
18:00+18ююв3782100 1.1 1004837
21:00+14ююв299798 1.3 1004257
20 мая, чт
чт2000:00+13ююв2598100 0.0 1005121
03:00+12юв249897 0.0 1005109
06:00+11ююв2696100 0.0 1005178
09:00+15ю2380100 0.1 1004390
12:00+17ю2373100 2.5 1003847
15:00+17ююз458191 6.8 1003881
18:00+14юз589015 2.9 1004802
21:00+10юз51195100 3.1 1006788